Regional Weather Roundup
Issued by NWS

Home | Current Version | Previous Version | Text Only | Print | Product List | Glossary Off
Versions: 1 2 3 4 5 6 7 8 9 10 11 12 13 14 15 16 17 18 19 20 21 22 23 24 25 26 27 28 29 30 31 32 33 34 35 36 37 38 39 40 41 42 43 44 45 46 47 48 49 50

000
ASUS45 KABQ 031010
RWRNM
NEW MEXICO REGIONAL WEATHER ROUNDUP
NATIONAL WEATHER SERVICE ALBUQUERQUE NM
400 AM MDT MON AUG 03 2015

NOTE: "FAIR" MEANS FEW OR NO CLOUDS BELOW 12,000 FEET AGL WITH NO
       SIGNIFICANT WEATHER OR OBSTRUCTIONS TO VISION.

      THIS PRODUCT IS RELEASED AS TWO VERSIONS.  ONE VERSION NEAR
      THE TOP OF THE HOUR CONTAINING PRELIMINARY DATA FROM ALBUQUERQUE
      AND OTHER STATIONS.  A FINAL VERSION WITH ADDITIONAL DATA IS
      ISSUED ABOUT 10 MINUTES AFTER THE HOUR.

NMZ501-503-504-510>518-031100-
NORTHWEST PLATEAU/NORTHCENTRAL MOUNTAINS

CITY           SKY/WX    TMP DP  RH WIND       PRES   REMARKS
FARMINGTON     CLEAR     59  56  89 CALM      30.17S
LOS ALAMOS     FOG       56  56 100 CALM      30.27F VSB 1/4
SANTA FE       MOCLDY    60  56  86 N8        30.19F
TAOS           CLOUDY    57  46  67 NE6       30.28F
ANGEL FIRE     LGT RAIN  53  50  88 SE5       30.36R

$$
NMZ402-403-502-505>509-031100-
WESTCENTRAL MOUNTAINS/SOUTHWEST MOUNTAINS

CITY           SKY/WX    TMP DP  RH WIND       PRES   REMARKS
GALLUP         CLEAR     53  52  96 CALM      30.23R
GRANTS         PTCLDY    55  55 100 CALM      30.24S
SILVER CITY      N/A     66  59  77 NE7       30.17F

$$
NMZ407-409-411-412-031100-
SOUTHERN DESERTS

CITY           SKY/WX    TMP DP  RH WIND       PRES   REMARKS
LORDSBURG      FAIR      72  57  60 S5        30.06R
DEMING         CLOUDY    71  63  75 N6        30.07R
LAS CRUCES     CLOUDY    71  62  74 NW8       30.07S
HOLLOMAN AFB   CLOUDY    71  62  74 NW14      30.02R
ALAMOGORDO     MOCLDY    77  55  47 N9        30.03S
T OR C         CLOUDY    69  65  86 NW6       30.11S

$$
NMZ519>523-031100-
CENTRAL VALLEYS/CENTRAL HIGHLANDS

CITY           SKY/WX    TMP DP  RH WIND       PRES   REMARKS
ALBUQUERQUE    PTCLDY    65  60  84 W13       30.14R
DOUBLE EAGLE   PTCLDY    60  58  94 W7        30.18R
MORIARTY ARPT    N/A     60  56  87 E3        30.21F
CLINES CORNERS MOCLDY    60  56  86 NW7       30.25S
BELEN          FAIR      62  59  90 W6        30.14R
SOCORRO        MOCLDY    67  60  80 CALM      30.12S

$$
NMZ524>526-539-540-031100-
SOUTHCENTRAL MOUNTAINS

CITY           SKY/WX    TMP DP  RH WIND       PRES   REMARKS
RUIDOSO          N/A    N/A N/A N/A MISG        N/A

$$
NMZ527>531-031100-
NORTHEAST HIGHLANDS/NORTHEAST PLAINS

CITY           SKY/WX    TMP DP  RH WIND       PRES   REMARKS
RATON          NOT AVBL
CLAYTON        CLOUDY    65  63  93 SW9       30.09F

$$
NMZ532>537-031100-
EASTCENTRAL PLAINS

CITY           SKY/WX    TMP DP  RH WIND       PRES   REMARKS
TUCUMCARI      MOCLDY    68  66  93 CALM      30.05S
CANNON AFB     CLOUDY    68  64  88 SE7       30.05S
CLOVIS AIRPORT MOCLDY    66  63  88 SE6       30.06S

$$
NMZ028-029-538-031100-
SOUTHEAST PLAINS

CITY           SKY/WX    TMP DP  RH WIND       PRES   REMARKS
ROSWELL        MOCLDY    75  63  66 NW8       30.01R
ARTESIA        MOCLDY    75  59  57 W7        30.00S
CARLSBAD       CLOUDY    79  62  56 CALM      29.96S
HOBBS            N/A    N/A N/A N/A MISG        N/A


$$



USA.gov is the U.S. government's official web portal to all federal, state and local government web resources and services.